Location: SE Lincoln, NE
(40.7805°N, 96.6275°W)
Time: 07:23:48
(UTC-05:00)

ERS-1 Rocket - Pass Details

Date: 15 May 2021
Orbit: 753 x 757 km, 98.4° (Epoch: 20 June)

Event Time Altitude Azimuth Distance (km) Brightness Sun altitude
Exits shadow 22:49:34 42° 128° (SE) 1,062 3.2 -20.3°
Maximum altitude 22:50:59 59° 73° (ENE) 872 3.1 -20.5°
Drops below altitude 10° 22:55:56 10° 355° (N) 2,291 6.3 -21.0°
Sets 22:58:16 0° 351° (N) 3,220 7.3 -21.3°
